This is the latest recevied weather packets stored in our database for station/object DM3DP. If no packets are shown the sender has not sent any weather packets the latest 1 day(s).
| Time | Temp. | Humidity | Pressure | Rain* | Wind** | Luminosity | Snow |
|---|---|---|---|---|---|---|---|
| 1778006812 | 13.33° C | 99% | 1005 hPa | 1.78 mm | 0.89 m/s, 182° | 0 W/m² | - |
| 1778006481 | 13.33° C | 99% | 1005 hPa | 1.78 mm | 0.89 m/s, 76° | 0 W/m² | - |
| 1778006151 | 13.33° C | 99% | 1005 hPa | 1.78 mm | 0.89 m/s, 178° | 1 W/m² | - |
| 1778005821 | 13.33° C | 99% | 1005.1 hPa | 1.78 mm | 0.89 m/s, 358° | 2 W/m² | - |
| 1778005491 | 13.33° C | 99% | 1005.1 hPa | 1.78 mm | 1.34 m/s, 348° | 3 W/m² | - |
| 1778005161 | 13.33° C | 99% | 1005.1 hPa | 1.78 mm | 0.89 m/s, 183° | 4 W/m² | - |
| 1778004831 | 13.89° C | 99% | 1005.1 hPa | 1.52 mm | 2.24 m/s, 151° | 4 W/m² | - |
| 1778004501 | 13.89° C | 99% | 1005.1 hPa | 1.52 mm | 0.89 m/s, 298° | 3 W/m² | - |
| 1778004171 | 13.89° C | 99% | 1005.1 hPa | 1.27 mm | 0.45 m/s, 191° | 4 W/m² | - |
| 1778003841 | 13.89° C | 99% | 1005.1 hPa | 1.27 mm | 1.34 m/s, 111° | 5 W/m² | - |
| 1778003512 | 13.89° C | 99% | 1005.1 hPa | 1.02 mm | 0.89 m/s, 324° | 5 W/m² | - |
| 1778003181 | 13.89° C | 99% | 1005.1 hPa | 1.02 mm | 0.89 m/s, 305° | 5 W/m² | - |
| 1778002851 | 14.44° C | 99% | 1005.1 hPa | 0.76 mm | 1.34 m/s, 147° | 6 W/m² | - |
| 1778002521 | 14.44° C | 99% | 1005.1 hPa | 0.76 mm | 0.89 m/s, 290° | 8 W/m² | - |
| 1778002191 | 14.44° C | 99% | 1005 hPa | 0.51 mm | 1.79 m/s, 290° | 11 W/m² | - |
| 1778001862 | 14.44° C | 99% | 1005 hPa | 0.51 mm | 1.79 m/s, 321° | 12 W/m² | - |
| 1778001532 | 15° C | 99% | 1005 hPa | 0.25 mm | 1.34 m/s, 288° | 13 W/m² | - |
| 1778001201 | 15° C | 99% | 1005 hPa | 0.25 mm | 3.13 m/s, 284° | 11 W/m² | - |
| 1778000871 | 15° C | 99% | 1005 hPa | 0.25 mm | 1.79 m/s, 319° | 11 W/m² | - |
| 1778000541 | 15° C | 99% | 1005 hPa | 0 mm | 1.34 m/s, 157° | 13 W/m² | - |
| 1778000211 | 15.56° C | 99% | 1005 hPa | 0 mm | 1.34 m/s, 119° | 16 W/m² | - |
| 1777999881 | 15.56° C | 99% | 1005 hPa | 0 mm | 1.34 m/s, 182° | 21 W/m² | - |
| 1777999551 | 15.56° C | 99% | 1005 hPa | 0 mm | 1.79 m/s, 326° | 24 W/m² | - |
| 1777999222 | 15.56° C | 99% | 1005.1 hPa | 0 mm | 3.58 m/s, 287° | 26 W/m² | - |
| 1777998891 | 15.56° C | 99% | 1005.1 hPa | 0 mm | 2.68 m/s, 315° | 24 W/m² | - |
* Rain latest hour (hover to see other rain measurements)
** Current wind speed in m/s (hover to see current wind gust speed)